Location: Ostrava
(49.8330°N, 18.2830°E)
Time: 22:35:56
(UTC+02:00)

Cosmos 2219 Rocket - Visible Passes

Search period start: 20 July 2017 00:00
Search period end: 30 July 2017 00:00
Orbit: 827 x 848 km, 71.0° (Epoch: 19 July)

Date Brightness Start Highest point End Pass type
(mag) Time Alt. Az. Time Alt. Az. Time Alt. Az.
20 Jul 4.6 04:08:01 10° SE 04:11:46 18° E 04:15:32 10° ENE visible
21 Jul 4.6 03:51:57 10° SE 03:55:29 17° E 03:59:01 10° ENE visible
22 Jul 4.6 03:35:54 10° SE 03:39:11 16° E 03:42:28 10° ENE visible
23 Jul 4.6 03:19:53 10° SE 03:22:54 15° E 03:25:54 10° ENE visible
24 Jul 4.6 03:03:55 10° SE 03:06:36 14° E 03:09:18 10° ENE visible
25 Jul 4.6 02:48:01 10° ESE 02:50:19 13° E 02:52:37 10° ENE visible
26 Jul 4.6 02:32:14 10° ESE 02:34:02 12° E 02:35:51 10° ENE visible
26 Jul 2.5 04:11:16 10° SSW 04:16:54 68° ESE 04:22:33 10° NNE visible
27 Jul 4.7 02:16:40 10° ESE 02:17:45 11° E 02:18:51 10° E visible
27 Jul 2.6 03:54:57 10° SSW 04:00:33 63° ESE 04:06:11 10° NE visible
28 Jul 2.6 03:38:59 12° S 03:44:13 59° ESE 03:49:49 10° NE visible
29 Jul 2.7 03:23:16 15° S 03:27:53 55° ESE 03:33:25 10° NE visible
